Theta_e
345 345 348 353 353 353 353 353 352 353 353 354 354 354 354 354 354 354 354 354 354 354 354 354 354 354 354 354 353 353 353 353 353 353 352 353 352 352 352 352 351 350 350 348 347 348 349 347 346 345 345 345 345 343 342 343 346 346 345 346 345 346 347 347 346 345 344 344 344 344 344 343 345 346 345 344 344 343 342 341 341 338 337 339 341
344 346 349 351 353 353 353 352 352 352 353 353 354 354 354 354 354 354 353 353 355 355 354 354 354 354 354 353 353 353 353 353 353 352 352 352 352 352 351 351 350 350 349 349 349 350 349 349 347 345 344 343 344 342 342 342 344 346 346 346 346 347 347 346 345 344 344 344 344 344 344 344 344 345 345 344 343 343 341 341 341 337 336 340 340
345 347 349 350 353 353 353 352 352 352 353 353 353 354 354 354 354 354 354 354 354 355 354 354 354 353 353 353 353 353 353 352 352 352 352 351 351 352 351 350 350 349 350 350 349 349 348 348 347 346 344 343 342 341 341 343 344 345 346 346 347 347 347 346 344 344 345 346 346 346 346 345 344 344 344 344 344 342 341 341 340 341 336 339 339
344 345 347 349 352 353 353 352 352 353 353 353 354 354 354 354 354 354 354 354 354 354 354 354 354 354 353 353 353 353 353 352 352 352 352 352 351 351 351 350 350 350 349 349 349 349 348 348 349 348 346 344 342 341 342 343 345 344 344 344 345 345 345 346 346 346 346 347 346 345 344 340 342 343 343 343 343 342 341 340 341 340 339 338 339
344 345 346 348 350 352 353 352 353 353 353 353 354 354 354 354 354 354 354 354 354 354 354 353 353 353 353 353 353 353 353 352 352 352 351 351 351 351 350 351 350 350 350 350 350 348 348 348 349 348 347 345 344 343 342 343 344 344 343 343 343 342 343 343 343 346 346 346 346 344 340 341 340 342 342 341 341 340 341 341 341 341 339 338 338
343 345 347 348 349 351 353 353 353 353 353 354 354 354 355 355 355 355 354 354 354 353 354 354 354 353 353 353 353 352 352 352 352 351 351 351 351 350 350 350 350 350 350 349 349 348 348 348 348 347 347 345 344 344 343 343 343 343 343 343 343 342 342 342 342 342 343 344 346 345 338 338 338 339 342 341 340 339 339 340 341 340 338 337 337
343 344 345 347 349 351 353 353 353 353 353 354 354 354 354 354 354 354 354 354 354 354 353 353 353 352 352 352 352 352 351 351 351 351 351 351 351 351 351 351 350 350 350 349 348 348 347 347 346 347 346 346 345 344 342 342 342 342 343 343 343 343 343 343 343 343 341 344 336 339 336 337 338 338 341 341 340 340 340 339 338 338 338 338 337
344 345 345 347 349 352 354 353 354 354 354 354 354 354 354 354 354 354 354 354 353 353 353 353 352 352 352 351 351 351 350 350 350 350 350 350 351 351 350 349 349 349 348 348 348 347 347 347 347 347 346 346 345 344 342 342 342 343 342 343 342 344 343 344 345 345 346 341 337 334 336 336 336 336 340 341 341 340 339 337 337 337 338 338 337
343 345 346 348 350 353 354 354 354 354 354 354 354 354 354 354 354 354 354 354 353 353 353 353 352 351 351 351 350 350 350 350 350 349 349 349 349 349 349 348 348 348 347 346 345 345 346 347 347 348 347 346 346 344 343 343 342 343 344 342 345 345 344 345 346 346 342 338 338 335 335 333 332 334 340 341 341 340 337 336 338 338 338 338 336
342 344 346 348 350 354 354 354 354 354 354 354 354 354 353 353 353 353 353 353 353 353 352 351 351 351 351 350 349 349 349 349 348 348 348 348 348 347 347 347 346 346 346 346 345 345 346 347 348 348 348 346 345 344 345 343 344 343 343 344 343 344 345 345 346 344 339 338 335 333 334 337 333 336 339 340 340 339 338 338 340 337 337 336 336
343 344 346 348 351 353 353 353 354 354 354 354 353 353 353 353 353 353 353 353 353 352 351 351 351 350 350 348 348 347 347 347 347 346 346 346 346 346 346 346 345 345 346 347 345 345 347 348 348 348 348 347 347 345 343 345 343 344 345 345 345 345 345 346 345 340 339 334 339 338 341 343 333 334 340 339 339 338 338 338 337 336 335 336 335
342 343 345 349 354 353 354 353 354 354 354 354 353 353 353 353 353 353 353 353 352 352 351 351 351 350 350 348 347 347 347 345 345 345 344 344 344 344 344 345 345 344 345 345 344 345 346 348 348 349 348 348 347 346 345 344 345 344 345 345 345 345 345 346 343 340 338 335 337 335 335 335 334 337 339 338 338 337 337 336 336 336 336 335 335
342 343 346 349 351 353 353 353 354 354 354 354 353 353 353 353 353 353 352 352 351 351 351 350 350 349 349 348 347 346 346 345 344 344 344 343 343 343 342 342 343 343 344 344 345 345 346 346 347 349 349 348 347 347 346 345 345 346 346 345 346 346 346 346 342 340 339 332 335 334 334 333 333 340 339 338 338 337 337 336 336 335 334 334 334
341 343 346 348 350 355 353 353 353 354 354 353 353 353 353 353 353 352 352 352 351 351 350 350 349 349 348 346 346 345 345 344 343 342 342 342 343 343 342 343 343 343 343 344 343 345 345 346 347 348 348 348 348 347 347 345 346 346 346 346 346 346 346 343 343 339 339 334 336 334 333 334 334 338 337 338 338 337 336 336 334 334 335 334 334
340 342 345 347 350 351 354 353 353 354 353 353 353 353 353 353 352 352 351 351 350 350 349 349 348 348 347 347 346 345 344 344 344 344 342 341 341 341 341 341 341 342 342 342 343 344 344 344 346 347 347 347 347 348 345 347 346 346 346 346 347 347 346 343 343 340 340 337 335 335 333 334 340 338 338 338 337 336 335 335 332 334 335 332 334
340 341 344 346 349 351 351 355 353 353 353 353 353 353 353 352 352 351 351 350 350 349 349 348 348 347 347 346 345 345 345 345 344 343 343 342 340 340 342 342 341 341 341 342 342 342 343 344 346 347 347 347 348 346 347 345 347 346 346 346 346 347 347 346 341 340 333 333 334 335 333 336 340 338 337 337 337 336 335 335 333 334 334 334 333
341 342 343 345 348 349 350 351 353 354 353 353 353 352 352 352 351 351 350 350 349 349 349 348 347 347 346 345 345 344 344 345 345 344 344 343 341 340 341 341 341 341 341 341 341 341 342 343 344 346 346 347 346 346 346 346 346 346 346 346 346 347 348 348 343 338 333 334 335 334 334 336 339 338 337 337 337 335 335 333 332 334 333 331 331
341 340 341 344 346 348 350 350 351 351 351 352 353 352 351 351 351 350 350 350 349 349 348 347 347 346 346 345 345 345 345 344 344 344 344 343 342 341 340 341 341 341 341 341 341 341 341 343 343 344 345 346 347 346 346 346 347 347 347 347 347 347 348 349 339 338 333 339 333 336 335 340 341 339 338 337 335 334 335 334 333 331 332 331 332
340 340 341 342 344 346 348 348 349 349 349 349 349 350 351 351 350 350 350 350 349 348 348 347 346 346 346 345 345 345 345 345 344 344 344 344 343 342 340 339 340 340 340 341 339 341 341 341 343 343 344 346 346 347 346 346 346 347 347 347 346 346 347 343 337 338 338 334 333 333 334 342 341 339 338 336 333 333 334 333 333 332 333 331 332
340 340 340 341 342 344 345 345 346 347 347 347 348 349 351 351 350 350 350 349 349 348 348 347 347 347 347 346 346 345 344 343 345 344 345 344 344 343 342 339 340 340 340 339 339 339 340 342 342 341 344 345 347 347 347 346 346 346 346 346 347 348 339 335 337 338 332 332 334 333 340 342 341 340 338 337 334 334 334 333 329 332 332 331 331
340 339 339 340 341 342 342 343 344 345 346 347 348 348 349 350 350 350 350 349 349 348 348 348 347 347 347 346 346 342 340 340 341 341 345 342 345 344 343 342 339 339 340 340 340 339 340 340 341 341 342 342 346 347 346 346 346 346 347 347 347 340 337 335 336 337 334 334 336 335 342 342 340 339 339 337 334 333 334 332 331 332 332 331 331
338 338 340 341 340 340 340 342 342 343 345 346 348 348 349 349 347 346 345 347 348 348 345 343 349 342 347 345 342 344 343 340 340 346 343 343 343 343 343 344 342 340 339 340 340 340 340 341 342 341 340 342 344 339 342 347 347 347 347 347 343 338 336 335 337 332 333 332 336 339 343 341 340 340 338 337 335 336 333 332 332 332 332 331 332
337 339 339 340 340 340 340 340 339 342 343 344 346 347 347 346 346 345 346 348 348 346 344 347 343 343 344 344 344 344 344 342 343 347 346 345 344 344 344 344 344 343 341 341 340 341 341 341 341 342 341 341 338 338 340 340 341 347 348 345 340 338 337 337 337 330 331 333 334 343 343 342 340 340 340 338 336 335 334 332 331 331 332 331 331
338 340 340 341 341 341 340 341 340 341 341 342 343 343 343 344 344 344 343 344 344 346 344 344 343 341 344 342 345 345 345 344 351 350 352 344 341 345 344 345 345 345 344 343 342 342 342 342 342 342 343 341 334 337 340 340 339 338 338 338 336 336 337 337 338 333 332 337 335 345 343 341 341 340 340 339 337 336 336 333 332 332 332 331 331
339 341 342 342 342 344 344 344 342 342 341 341 342 341 341 342 343 341 342 342 342 341 342 342 342 341 340 344 343 346 345 344 343 343 340 340 338 339 339 339 339 339 344 340 339 339 339 336 331 333 331 332 333 333 336 337 339 338 337 336 336 335 337 338 336 332 332 335 336 345 344 343 342 341 341 340 338 337 337 335 333 334 333 332 331
340 339 339 343 341 342 342 343 343 342 339 339 340 342 341 338 338 338 339 339 341 341 341 341 339 342 342 345 345 342 343 343 343 342 343 341 340 339 339 338 339 341 343 340 339 339 334 333 329 327 327 329 330 331 334 337 338 337 336 336 336 337 337 335 334 334 334 333 338 345 343 343 343 342 342 341 339 338 338 336 335 335 334 332 332
338 338 338 341 342 341 342 343 342 341 339 339 339 340 337 336 336 336 336 335 338 339 339 338 341 343 342 344 340 339 339 340 340 340 339 341 340 341 341 341 342 341 344 338 337 340 333 328 327 325 325 327 328 329 330 333 336 338 337 336 336 335 333 334 334 334 332 334 339 346 344 344 343 344 343 342 341 339 339 337 336 335 334 334 333
339 339 339 340 340 341 344 343 341 341 340 340 337 336 337 337 336 341 340 339 340 337 340 341 343 343 343 343 344 338 339 338 339 339 339 339 340 341 342 342 343 342 344 343 340 339 340 335 333 330 329 328 328 328 329 328 333 333 329 332 332 332 334 335 335 334 332 335 337 345 344 343 344 343 344 343 342 341 340 338 337 335 335 334 334
337 337 337 338 340 342 342 342 340 337 335 334 333 336 336 337 337 337 338 347 339 341 342 342 341 343 344 346 345 338 338 337 336 338 339 339 341 341 342 342 341 341 341 343 342 341 340 339 337 336 335 335 333 333 335 334 333 333 333 333 333 333 334 334 334 335 333 335 337 341 344 343 342 343 343 343 343 343 342 340 339 337 336 337 335
336 336 339 338 339 341 340 338 335 334 333 335 335 335 336 335 337 340 343 344 343 343 342 342 341 341 343 344 345 341 339 336 336 337 339 339 340 341 344 342 341 341 341 340 340 342 339 337 338 338 336 335 336 335 334 334 335 333 333 332 333 333 334 335 333 333 335 337 337 338 345 343 341 342 342 343 344 344 343 341 340 339 338 337 337
336 335 337 338 337 335 335 336 336 340 340 339 337 339 341 340 342 343 344 345 345 345 342 341 341 342 343 343 344 344 339 338 337 336 337 338 340 339 341 340 341 341 341 341 341 341 341 339 337 336 336 335 334 337 334 334 333 333 335 334 334 333 332 333 334 333 334 336 338 338 340 344 342 342 341 341 343 343 343 343 342 341 340 338 337
334 335 335 334 333 333 335 339 338 340 341 341 342 341 341 342 343 343 342 344 346 342 341 342 341 339 341 342 343 342 341 339 339 337 337 337 339 339 340 337 338 340 341 339 339 341 340 339 337 337 336 334 333 334 335 333 332 332 333 335 334 333 336 335 334 333 332 335 338 338 337 339 343 343 342 341 341 343 343 344 343 342 341 340 338
335 336 336 334 335 337 336 336 336 338 340 340 341 341 341 342 342 342 343 344 341 339 339 339 340 342 341 341 341 342 341 338 338 337 338 337 338 337 338 339 340 340 338 339 340 340 338 337 337 337 338 336 334 335 337 333 331 332 333 334 334 335 336 336 334 333 333 334 336 334 336 338 337 341 341 342 341 341 342 343 343 343 342 341 339
334 337 339 338 338 337 337 337 337 338 338 339 340 341 341 342 342 341 342 341 339 340 341 340 341 338 337 339 340 341 340 341 337 337 338 339 338 335 338 339 338 338 338 339 338 336 335 336 335 335 338 335 333 333 333 332 332 332 332 334 334 333 334 336 334 335 335 334 334 335 335 337 336 335 337 342 342 340 340 341 343 343 343 342 340
337 336 336 336 336 335 336 335 337 335 336 336 338 338 339 340 340 340 338 339 340 339 339 338 338 340 338 339 340 339 341 341 341 338 338 338 336 335 336 337 337 336 337 336 336 336 336 335 333 333 332 330 330 332 332 332 333 333 332 334 334 334 334 334 334 335 335 334 333 336 335 335 335 336 336 334 340 341 340 340 341 342 342 343 342
337 337 337 336 335 335 336 334 334 334 334 337 337 337 338 338 339 339 334 336 338 337 336 336 338 337 339 339 341 342 340 340 339 340 337 336 336 336 338 339 338 337 337 337 337 336 334 334 334 332 329 330 331 331 330 331 332 333 333 334 334 335 334 333 333 334 335 334 334 334 335 334 334 334 338 335 334 337 340 340 339 339 341 342 342
338 337 336 336 335 335 335 334 333 333 334 336 335 335 337 337 337 336 337 337 336 336 337 338 338 337 339 336 337 338 338 338 337 336 337 339 338 339 339 338 340 338 338 336 336 336 335 337 333 333 331 328 331 332 332 331 331 332 332 331 332 333 333 333 334 334 336 333 333 334 335 336 336 342 337 336 335 335 338 340 340 339 338 339 341
338 337 336 335 334 332 331 332 333 333 333 334 335 335 336 337 335 334 336 335 335 336 337 336 336 338 339 337 337 339 339 337 337 338 339 340 338 338 338 339 339 338 337 336 335 336 335 334 333 333 335 331 331 331 331 331 332 333 332 332 332 332 333 334 334 335 333 333 333 333 334 334 333 334 337 337 336 335 335 337 340 340 339 337 337
336 336 335 334 333 332 334 334 333 331 332 334 335 334 335 334 333 333 333 333 334 336 336 336 335 336 337 338 339 338 339 339 338 337 338 338 337 336 335 336 336 335 335 334 333 333 333 333 331 332 334 334 332 332 331 331 331 331 332 332 332 333 334 334 334 333 333 333 333 335 336 334 335 336 334 334 335 335 335 335 335 336 336 337 337
335 335 334 333 332 333 333 332 331 332 334 334 334 334 333 332 332 332 331 332 333 335 335 334 334 334 337 337 338 335 335 336 334 333 333 336 335 333 333 333 333 333 332 332 331 331 331 330 330 330 329 331 332 332 330 329 329 328 328 329 330 330 332 333 331 332 333 333 333 333 333 333 333 334 334 335 335 336 335 334 336 335 335 336 337
334 334 333 333 333 332 331 330 332 334 333 332 331 330 329 330 330 329 328 330 331 332 333 333 333 335 333 331 330 330 330 332 332 330 329 332 332 332 331 330 330 331 333 333 333 331 331 328 328 328 327 327 328 330 328 328 325 324 325 325 326 328 328 330 331 331 330 330 331 331 332 332 332 333 333 334 335 335 334 334 333 333 333 333 334
332 333 333 333 332 332 333 334 334 333 332 332 332 330 329 329 329 329 330 330 330 331 331 332 330 330 329 328 328 327 326 327 330 328 327 326 326 328 328 326 327 328 330 329 330 331 327 326 326 324 326 325 326 328 327 326 323 321 320 321 321 324 326 329 327 327 327 328 329 329 331 331 333 331 333 335 335 334 333 332 333 333 334 333 333
332 332 333 333 333 332 332 332 332 332 332 334 332 330 330 330 328 328 330 330 333 334 332 329 328 326 327 327 327 326 326 325 325 328 326 325 324 324 324 323 322 326 323 323 323 323 323 322 324 322 321 323 324 327 324 325 321 320 320 316 314 317 319 323 324 324 326 326 327 327 328 328 324 324 328 333 334 334 335 334 334 334 334 333 334
331 332 333 333 332 331 330 331 331 331 332 333 333 331 331 331 331 332 332 332 331 332 330 328 326 325 323 324 324 324 323 322 322 323 324 324 323 322 323 322 321 322 322 320 320 320 320 321 321 322 320 318 319 320 323 321 322 318 314 314 315 314 311 316 318 321 325 324 326 324 325 322 321 321 322 324 324 332 333 334 333 334 335 335 334
331 332 332 332 332 330 330 330 330 329 331 333 332 332 332 331 331 330 331 332 332 330 327 325 326 325 322 321 320 321 322 321 320 320 322 320 320 320 320 320 320 321 321 319 318 319 319 319 319 319 318 315 315 316 318 318 320 319 318 315 313 313 313 316 318 317 320 321 322 321 322 319 318 319 320 320 321 325 327 329 330 330 331 334 334
331 333 333 332 332 331 330 329 330 331 331 331 331 331 330 329 327 327 326 325 323 323 323 322 322 321 320 321 320 320 320 319 318 318 318 321 318 318 317 317 317 318 318 317 317 318 318 317 317 317 316 315 314 313 311 315 317 316 318 319 320 315 313 316 316 310 316 319 319 318 317 315 316 318 317 317 316 316 318 320 323 325 328 329 330
331 332 331 332 332 331 330 331 331 329 330 328 329 330 328 328 327 327 327 324 322 322 323 324 323 322 322 320 319 318 317 316 316 316 316 318 317 316 316 316 316 316 319 316 316 315 316 316 316 315 314 315 313 309 309 309 311 312 314 314 316 316 315 310 306 309 306 310 313 312 312 313 314 314 313 313 313 312 314 317 317 323 326 327 329
330 331 331 332 331 331 330 330 330 330 329 329 329 328 327 328 328 327 326 323 322 321 322 322 323 322 320 319 319 317 315 315 315 315 315 316 317 315 315 315 315 316 318 315 315 314 315 315 315 313 314 313 311 308 307 308 307 307 312 311 312 312 311 309 309 306 305 303 305 309 310 310 310 311 310 310 310 310 312 312 314 315 320 326 322
330 330 330 331 330 330 329 328 328 329 330 330 330 330 330 327 326 325 323 324 323 322 322 322 320 319 317 317 317 316 314 314 314 314 314 314 317 315 314 314 315 315 316 314 314 314 313 312 311 311 310 311 311 310 307 307 307 306 306 308 308 307 307 308 307 307 304 301 301 302 302 306 306 307 308 309 309 310 310 310 313 310 312 319 314
330 331 330 329 327 326 326 326 326 326 326 328 329 329 327 326 324 323 322 322 321 321 320 319 317 316 314 313 314 313 312 311 312 312 312 313 313 314 313 313 313 314 315 312 312 311 312 312 311 310 310 309 309 309 308 307 307 307 307 307 305 304 303 304 304 303 303 303 299 300 301 300 299 302 306 306 307 308 308 309 308 308 309 311 309
329 329 327 326 325 324 323 322 322 322 322 322 322 322 324 325 323 323 322 321 321 320 319 317 315 314 312 312 312 311 311 310 310 310 311 312 312 314 312 312 313 314 312 311 310 310 310 310 311 309 309 309 308 307 308 307 306 306 306 305 303 303 301 301 301 302 302 300 299 299 300 301 300 300 302 305 306 305 307 307 306 306 307 306 306
Wind_Speed
8 11 9 12 13 15 17 17 17 17 18 16 15 15 15 15 15 15 15 15 15 14 14 14 13 13 13 13 13 13 13 13 13 13 13 13 13 13 13 14 14 14 14 14 15 14 14 13 12 12 12 13 13 12 11 11 12 11 11 11 11 12 13 13 14 15 15 15 14 13 13 14 13 14 13 14 15 16 15 13 10 5 4 8 13
12 10 7 10 14 14 17 17 17 18 17 16 15 14 15 15 15 15 15 16 15 14 14 14 13 13 13 13 13 13 13 13 12 12 12 13 13 14 14 14 13 14 14 14 14 13 13 12 12 12 12 12 12 12 11 11 9 9 9 10 10 11 10 11 12 13 14 14 14 14 14 14 14 13 14 14 14 15 13 13 13 6 4 11 12
12 10 8 11 16 16 16 17 17 17 17 16 15 15 15 15 15 15 15 15 15 14 14 13 13 13 14 14 13 13 13 13 13 12 12 12 13 13 13 13 13 14 13 13 13 13 13 12 12 12 12 12 11 11 10 9 8 8 8 9 9 9 9 9 10 10 13 14 14 15 17 15 14 14 14 13 13 13 12 12 12 10 7 13 11
14 9 8 12 17 14 15 18 18 18 17 15 16 15 14 14 15 15 15 14 14 14 14 14 13 13 13 14 14 14 13 13 13 12 12 12 13 13 12 12 13 12 13 12 13 12 12 12 12 12 12 11 11 10 10 10 8 6 7 7 7 8 8 7 8 8 11 13 12 10 5 7 9 13 13 12 12 12 11 11 12 11 12 11 12
14 10 8 8 10 12 15 17 16 18 17 16 16 16 15 15 15 14 14 14 14 14 14 14 14 14 14 14 14 14 14 14 13 12 12 12 11 12 12 12 12 12 12 12 11 11 11 11 11 11 11 11 10 10 8 8 7 6 5 6 6 7 7 6 5 5 5 8 12 7 4 6 6 10 11 11 11 10 11 12 11 11 12 11 10
12 9 8 8 8 10 15 17 18 18 17 17 16 16 15 15 15 15 14 14 14 14 15 15 15 14 14 15 14 14 14 14 13 12 11 11 10 10 11 11 12 12 11 10 10 10 11 11 11 10 11 10 10 9 7 5 5 5 6 5 6 6 6 6 6 4 3 6 6 3 2 4 5 6 10 9 10 10 10 11 11 11 11 11 11
15 9 8 7 7 9 14 15 18 17 17 17 16 16 16 15 15 14 14 14 14 14 15 16 15 14 14 14 14 14 14 14 13 13 12 11 11 10 11 11 11 11 10 9 9 9 10 10 10 10 9 9 9 7 6 5 5 6 5 6 6 7 7 7 7 6 6 4 3 1 2 4 5 4 9 9 8 10 10 9 10 10 10 11 11
11 10 9 8 6 11 13 15 17 17 17 17 16 16 16 16 15 15 15 14 14 15 15 15 15 15 14 14 14 13 13 13 13 12 11 10 9 9 10 10 10 9 9 9 8 8 9 9 9 8 9 9 8 7 5 4 5 5 7 6 7 7 8 8 8 9 10 4 2 2 5 4 4 3 7 9 8 10 10 9 9 9 10 10 10
11 11 9 8 7 14 12 14 16 18 17 17 16 17 16 16 15 15 15 14 14 15 15 15 15 15 14 13 13 13 13 12 11 11 10 10 10 10 9 9 9 10 9 8 7 7 8 9 9 8 7 7 6 6 5 3 4 4 6 8 9 10 11 11 10 11 7 5 2 7 6 5 4 3 8 10 10 10 10 8 6 9 10 10 9
12 10 9 8 8 13 12 13 15 17 17 17 17 16 16 16 15 15 16 16 15 14 14 14 14 14 13 12 12 11 11 11 11 10 10 9 8 8 8 8 8 8 7 7 6 6 8 8 8 9 7 6 6 4 4 4 5 6 7 9 10 11 11 11 12 7 3 4 7 7 7 9 4 4 7 9 9 9 8 8 7 8 7 9 8
12 10 9 9 11 12 12 13 14 16 17 17 17 16 16 16 16 16 15 15 14 14 13 14 14 13 13 12 11 11 11 11 10 10 9 8 8 7 7 6 6 6 6 6 5 6 8 9 9 8 8 6 4 4 3 4 5 6 7 9 10 10 11 12 12 5 4 3 6 7 10 13 5 3 8 8 8 8 8 8 8 7 8 8 7
12 10 9 8 14 12 13 13 13 14 16 16 16 16 16 16 16 15 15 14 14 14 14 13 12 13 13 12 11 11 11 11 10 9 9 8 7 7 6 6 6 6 6 5 5 6 8 8 8 8 7 7 5 3 3 3 4 6 7 8 9 9 10 11 7 5 3 1 6 8 7 6 4 6 10 8 7 7 7 7 7 8 8 8 8
12 11 10 8 9 12 12 12 14 14 16 16 15 16 15 16 15 15 14 12 13 13 13 13 12 12 12 12 12 11 11 10 10 9 9 8 7 6 6 6 5 5 5 5 5 6 8 8 8 8 8 7 6 4 2 2 4 5 7 7 8 9 9 11 5 4 3 4 6 7 8 5 4 9 8 8 8 7 6 7 7 7 7 6 5
12 11 10 9 8 15 12 12 12 14 15 15 14 13 14 15 15 13 13 12 13 13 12 12 12 12 12 12 12 11 11 10 9 9 8 7 6 6 5 5 5 5 4 4 5 6 7 8 7 7 7 6 6 4 2 2 3 5 6 7 7 8 10 7 6 4 5 5 6 8 6 5 5 9 8 8 7 6 6 6 6 5 7 6 7
14 12 11 10 9 10 16 12 12 13 12 12 12 12 13 13 12 12 12 14 14 13 12 13 12 12 12 12 12 11 10 10 9 9 8 7 6 5 5 5 4 4 4 4 4 5 7 7 7 6 6 5 4 3 3 3 4 6 7 7 7 8 10 5 5 4 3 4 7 7 6 5 9 9 8 7 7 7 5 6 4 4 7 5 6
13 12 12 9 9 9 9 13 12 12 12 11 11 13 13 13 12 12 12 12 13 12 12 12 12 12 12 11 11 10 10 9 8 8 7 7 6 5 5 5 4 3 3 3 3 5 6 7 7 6 5 4 4 2 2 3 4 6 8 8 8 8 8 7 4 3 3 5 6 5 5 5 10 9 8 7 7 5 4 6 3 4 6 6 5
11 12 12 11 10 9 8 8 10 14 11 11 13 14 14 12 12 12 11 12 12 12 11 11 11 11 11 11 11 10 9 8 8 7 7 6 5 5 5 5 4 3 2 2 3 4 5 6 6 6 5 4 2 2 2 2 4 6 7 8 8 8 7 8 5 2 0 4 7 6 5 5 9 9 9 7 6 4 4 4 4 5 5 3 3
11 11 11 10 10 9 8 9 9 8 7 10 14 15 14 13 11 10 11 11 11 11 11 10 10 10 11 11 11 10 9 8 7 7 7 6 5 5 4 4 3 3 2 2 3 4 4 5 6 6 5 4 2 1 3 4 5 6 7 8 9 9 9 9 4 3 1 5 7 6 5 6 10 10 8 6 4 4 4 4 4 3 3 3 4
11 10 10 10 10 9 9 8 7 7 6 5 5 11 15 12 11 11 11 10 10 11 10 9 9 9 10 9 9 8 8 8 7 6 6 5 5 4 3 3 2 2 1 1 2 2 3 3 4 5 5 5 2 2 3 5 6 7 8 8 9 10 12 6 3 5 2 3 5 6 6 10 10 11 8 6 5 4 4 4 4 3 4 3 3
9 10 10 9 9 9 8 7 7 7 5 5 6 6 12 13 11 11 11 10 10 9 9 9 9 8 8 8 7 5 5 4 7 4 6 6 5 4 3 1 1 2 1 0 1 2 2 3 2 3 4 3 2 2 3 4 6 7 8 8 8 10 6 5 2 3 5 4 4 5 8 12 12 10 9 7 4 4 4 3 2 2 3 3 2
8 10 8 9 9 9 9 6 7 7 6 6 5 6 9 12 10 11 10 9 8 8 8 8 7 8 7 7 6 2 1 1 3 2 5 2 3 5 3 2 1 1 2 2 2 3 2 4 3 1 1 1 2 3 4 6 7 9 9 8 8 6 6 5 1 0 4 5 4 5 11 12 11 9 9 8 6 5 5 4 3 3 3 3 1
10 9 9 9 9 9 9 9 8 8 7 6 5 5 6 8 5 4 4 5 6 7 5 3 5 2 6 4 3 2 3 2 3 5 2 2 3 4 3 2 2 2 2 4 4 4 5 4 5 4 2 1 2 1 3 6 9 10 9 9 5 5 6 5 3 2 4 5 5 7 13 12 12 10 9 8 7 8 6 4 4 2 3 2 2
11 9 10 11 10 9 8 9 8 9 8 6 5 5 6 4 5 4 4 5 5 5 3 4 2 3 3 3 3 3 3 3 3 4 3 4 3 4 3 3 3 3 4 5 6 6 6 7 7 6 2 3 2 2 4 4 5 10 10 6 5 5 5 5 5 2 4 5 5 10 13 13 13 12 11 10 9 8 8 6 5 5 3 3 3
11 10 11 10 11 9 10 8 10 9 7 6 6 6 5 5 4 4 5 4 4 3 3 3 3 3 3 3 5 3 2 4 6 7 4 2 1 2 3 3 4 4 6 4 6 7 8 8 8 8 3 2 4 4 4 5 5 6 5 5 5 5 5 5 5 3 5 6 5 12 12 12 13 12 11 11 10 9 10 8 6 6 5 4 3
9 9 8 9 9 8 7 10 10 8 9 8 7 6 6 6 6 5 6 5 5 3 3 3 3 4 3 4 2 2 4 4 5 5 4 3 2 1 1 2 2 3 5 3 3 4 4 5 5 5 3 3 4 5 5 5 6 6 5 5 5 4 5 5 6 2 6 5 5 11 11 12 11 12 12 11 11 10 11 9 8 8 6 6 4
9 9 8 5 11 7 5 6 10 8 8 8 8 7 8 6 6 7 6 6 6 5 4 3 3 5 3 4 5 4 4 4 4 4 3 2 1 2 3 3 3 4 3 4 4 4 4 4 4 5 5 4 4 5 5 5 6 6 5 5 5 5 6 6 2 2 5 5 7 14 12 11 11 12 12 11 11 10 11 9 9 9 7 8 7
5 7 6 7 10 11 9 10 9 7 9 8 7 6 6 7 7 6 6 6 5 4 4 5 4 5 4 3 5 4 4 3 3 3 3 2 3 2 1 2 4 5 3 3 4 4 5 5 5 5 5 4 5 5 5 7 7 6 6 5 6 7 3 2 2 2 2 5 6 13 10 10 10 11 11 11 12 11 11 11 10 9 9 9 9
3 6 6 7 7 10 10 7 8 7 7 8 6 6 6 6 7 6 6 5 5 5 5 3 5 6 4 4 3 4 3 1 3 3 2 2 2 3 3 3 4 4 4 3 5 5 5 5 4 5 3 3 5 5 5 3 0 1 3 3 2 3 2 3 3 3 2 5 3 8 10 9 9 10 11 11 12 12 12 11 11 10 10 9 10
6 6 5 7 5 7 8 5 4 8 7 7 6 6 6 6 4 3 2 3 5 5 4 4 5 5 4 4 2 1 3 2 1 0 0 2 3 2 3 3 4 4 3 5 5 4 3 2 1 1 0 2 3 3 6 6 4 1 1 3 4 5 4 4 3 3 2 4 5 6 9 10 10 10 11 12 12 12 12 12 12 12 10 11 10
5 4 5 7 7 6 7 6 6 8 6 5 6 6 6 5 4 4 3 5 5 5 5 5 3 5 4 3 3 3 3 2 1 2 3 3 2 2 1 2 3 2 3 4 2 3 3 4 5 5 5 5 6 5 5 7 7 6 2 2 3 4 5 4 3 1 4 4 4 5 10 11 11 10 11 12 12 12 12 12 13 13 12 12 12
9 10 11 8 7 7 5 7 5 7 8 6 5 6 6 6 5 5 5 6 6 6 5 6 7 5 5 3 3 3 2 1 1 2 2 3 3 3 3 2 3 3 3 4 4 4 5 5 3 3 3 4 4 4 4 4 5 6 6 5 5 4 5 5 3 2 0 4 4 4 6 12 11 11 11 11 11 12 12 12 13 13 14 12 12
9 10 8 8 9 6 5 7 10 8 8 6 6 7 6 5 5 6 5 6 6 5 5 5 4 5 7 6 5 2 0 0 0 1 3 4 4 3 2 2 2 3 4 3 5 5 4 3 3 2 1 2 2 2 2 2 4 4 4 4 4 5 5 4 4 5 3 3 4 4 4 5 9 10 11 11 11 11 12 13 13 13 14 14 13
6 7 8 8 6 5 8 8 8 8 7 6 7 6 6 6 6 6 5 6 5 4 5 5 4 7 8 9 7 5 3 3 1 1 0 1 2 3 2 3 4 3 3 4 5 4 4 4 4 3 4 4 3 4 4 4 3 4 4 4 3 3 3 4 4 5 4 4 4 4 5 5 4 9 11 11 11 12 12 13 14 14 14 14 14
7 5 7 8 5 5 7 6 7 8 7 6 6 6 6 6 5 5 5 5 4 5 5 5 7 8 5 5 4 8 7 4 4 5 3 2 4 6 5 4 5 3 3 4 4 3 3 4 4 4 4 4 5 4 4 5 5 5 5 5 4 5 5 4 4 4 3 3 4 3 5 5 5 5 6 10 12 12 13 13 14 14 14 14 15
8 7 9 6 6 8 7 6 6 6 6 6 6 6 5 5 5 5 5 4 4 5 4 6 7 5 5 2 4 3 5 6 7 6 6 6 5 2 5 2 2 3 4 2 2 2 4 4 4 4 3 3 3 4 3 4 5 6 5 5 5 5 4 5 4 4 4 3 3 3 4 4 4 4 5 5 8 13 14 14 14 14 14 14 15
10 9 8 7 8 9 8 8 6 6 4 5 6 5 4 4 5 5 5 4 5 5 4 5 5 4 3 2 2 3 1 2 3 6 3 7 7 3 1 0 1 2 3 3 3 3 2 2 1 1 5 5 4 4 3 4 5 5 5 5 5 5 6 5 5 4 3 2 3 3 4 4 4 5 5 5 6 7 13 13 14 14 14 14 14
11 10 9 7 10 11 9 8 7 5 4 5 6 4 4 5 5 5 5 5 6 5 5 5 5 4 4 5 4 4 3 2 2 5 5 3 4 3 5 2 2 4 4 3 4 4 3 3 2 1 1 3 5 6 6 5 5 5 5 5 5 5 6 6 4 4 4 4 3 4 3 4 4 6 5 6 6 6 8 12 13 14 15 14 14
12 11 9 9 9 9 9 8 7 6 5 5 5 5 4 4 5 5 4 6 5 5 4 5 6 4 4 4 3 2 1 6 8 4 3 6 5 4 4 5 4 5 5 5 4 4 4 4 4 3 4 3 5 5 6 6 5 6 6 6 7 6 6 6 5 4 4 3 4 4 5 5 5 5 6 6 6 5 6 8 12 14 15 15 15
8 9 9 9 9 9 8 8 7 7 6 5 5 5 5 5 4 4 6 5 5 4 3 5 5 3 3 3 5 4 3 7 7 6 5 5 5 6 6 6 5 5 5 5 4 4 4 5 4 4 4 4 3 4 5 6 6 5 5 7 6 7 7 5 4 3 3 4 5 6 4 4 2 3 3 4 5 5 6 7 6 6 8 15 15
8 8 8 7 8 7 7 7 6 6 6 6 5 5 5 4 5 4 5 4 4 4 4 4 3 4 4 4 5 7 9 9 8 6 6 4 4 5 6 5 5 4 5 5 5 6 6 6 6 4 6 4 4 5 6 7 5 4 4 6 6 7 6 5 2 2 4 5 6 6 6 3 0 5 5 5 6 6 6 6 6 6 6 8 14
8 8 8 6 6 7 8 8 6 5 6 6 5 6 5 5 4 4 6 4 5 6 5 3 3 6 8 8 9 9 10 9 7 6 7 6 5 5 5 6 6 6 5 5 4 5 5 4 4 4 5 5 5 6 9 6 5 7 4 5 6 5 6 2 4 6 7 6 6 6 6 1 3 6 6 5 5 5 5 5 5 5 6 6 7
8 8 8 6 5 6 7 8 6 4 4 4 5 4 3 4 6 4 5 5 5 5 6 6 7 7 10 10 10 10 9 7 6 6 6 6 6 6 6 6 6 5 5 6 6 5 6 6 4 5 5 5 4 7 8 7 6 6 5 6 6 7 3 5 5 8 8 6 7 6 6 6 3 6 8 5 4 3 3 3 4 6 6 5 6
8 7 6 6 6 6 6 6 6 5 4 4 4 4 3 3 4 4 5 5 3 5 7 7 8 10 10 10 10 8 7 7 6 5 5 5 5 5 4 5 5 4 5 6 6 6 5 7 7 6 5 4 3 6 8 8 5 6 4 2 4 7 6 7 7 11 6 7 7 7 8 9 12 10 10 6 6 4 3 3 5 5 6 6 7
7 7 7 7 6 5 5 6 6 5 5 4 4 4 5 4 3 6 4 6 7 8 9 9 10 11 11 10 10 8 8 7 7 6 5 5 5 5 4 5 6 5 5 6 6 7 7 8 8 8 5 5 5 5 7 8 7 7 5 2 3 2 5 6 9 9 4 7 7 9 9 10 11 11 8 9 10 7 6 6 5 5 6 7 7
7 7 7 6 5 6 6 5 5 5 4 5 6 6 6 5 4 2 3 7 7 7 8 8 8 9 9 9 8 7 7 7 6 6 6 5 5 6 5 5 6 6 6 6 6 6 7 7 8 6 7 3 5 4 6 8 9 8 4 3 3 2 2 7 10 4 7 6 8 10 10 13 12 10 8 10 9 9 10 9 8 9 9 8 6
6 6 5 5 5 6 4 3 4 4 4 4 4 5 5 7 6 6 6 6 7 6 7 8 8 7 7 6 7 6 6 6 6 6 6 5 5 6 6 6 6 6 6 6 6 6 8 8 7 5 6 6 3 6 5 7 6 9 7 5 3 3 6 7 5 7 4 4 6 9 10 13 12 10 11 12 14 12 11 12 12 11 12 12 9
6 6 6 5 5 5 4 4 3 3 3 3 3 4 6 5 6 5 6 7 9 6 7 8 8 7 7 8 6 7 7 7 5 5 5 4 5 6 6 5 5 5 5 6 7 7 7 7 7 7 6 7 7 6 6 5 4 7 7 7 6 7 8 8 5 5 8 4 5 9 9 12 12 12 13 13 14 13 11 10 11 9 11 11 10
7 8 7 6 6 5 5 4 3 3 3 3 3 3 6 5 6 6 7 8 8 8 8 8 7 7 8 6 5 6 6 5 5 5 5 5 5 6 6 6 6 6 6 7 7 7 7 7 7 6 6 6 5 5 4 5 6 5 5 6 7 7 7 8 7 4 2 9 10 6 4 10 9 8 10 12 13 12 11 11 10 12 10 10 12
8 8 7 7 6 6 6 4 4 4 5 4 4 3 4 6 7 7 8 7 8 8 7 7 8 8 8 4 6 6 5 6 6 5 5 6 6 5 6 6 6 6 6 6 6 7 7 6 7 7 6 6 5 4 4 6 5 5 3 5 4 5 5 5 6 6 5 5 6 11 14 12 4 5 9 9 10 10 10 10 9 11 9 8 12
8 8 9 8 7 5 6 5 4 2 2 2 3 3 6 6 7 8 9 8 7 7 7 8 8 7 7 6 6 6 5 5 6 6 6 7 6 5 6 6 6 6 6 6 6 7 6 5 5 5 5 6 5 5 6 6 6 6 6 5 7 6 5 5 6 6 4 5 6 10 9 13 16 11 8 11 11 9 11 9 10 10 9 10 11
9 10 8 7 6 5 6 6 4 5 5 6 7 7 5 5 6 6 8 9 8 8 8 8 8 7 6 5 5 6 5 5 6 6 6 6 6 5 5 6 6 6 7 6 7 7 6 6 6 6 5 5 5 6 7 7 7 8 9 8 8 9 8 8 7 7 6 5 6 6 8 9 10 12 10 10 10 10 9 9 11 10 10 12 12
Wind_Direction
133 137 139 136 132 128 126 127 125 122 120 118 116 115 113 111 109 106 105 103 102 103 101 97 96 92 88 88 87 86 85 86 87 89 92 94 95 96 98 99 100 99 94 91 87 83 80 76 75 75 77 77 79 80 83 83 78 76 87 89 84 88 90 92 96 99 101 96 86 80 82 82 78 76 68 68 68 71 74 74 69 62 58 59 62
142 138 137 135 134 133 129 127 127 126 123 121 119 117 113 112 109 108 106 105 104 104 103 100 98 93 90 89 88 87 87 88 90 89 93 96 99 100 101 102 101 97 95 95 92 86 84 80 77 75 76 78 78 79 82 89 91 87 85 81 81 82 87 94 99 102 101 98 96 89 78 77 76 73 70 69 71 73 75 73 66 55 48 63 61
129 135 138 137 134 133 132 129 129 127 125 123 121 118 115 113 113 108 106 107 106 105 103 99 96 92 91 87 87 86 87 88 88 90 94 98 101 103 102 105 101 99 98 94 91 87 79 77 78 77 77 79 81 83 91 96 91 84 74 74 76 77 82 85 96 105 105 100 94 89 87 73 68 65 68 68 70 72 77 81 74 67 67 65 64
128 132 137 138 135 133 133 133 131 129 127 124 122 119 116 114 112 110 109 108 106 105 103 100 96 94 89 88 86 87 87 87 88 90 94 98 103 105 107 106 104 101 98 92 87 86 82 80 80 78 78 79 81 81 89 90 83 69 72 71 72 70 65 76 87 99 112 102 92 85 75 85 64 61 63 66 71 72 67 68 71 77 71 66 65
123 130 132 133 136 136 135 133 131 131 128 126 123 120 118 115 112 111 111 108 109 107 104 101 100 95 92 90 87 87 88 88 88 88 93 99 102 105 106 104 102 100 97 94 90 85 82 80 81 80 79 80 81 83 85 83 74 68 59 66 62 60 51 57 51 78 103 110 78 65 72 85 84 68 64 64 72 73 68 69 74 77 74 68 62
126 129 132 133 137 138 135 133 131 130 128 126 125 121 119 117 114 112 111 110 109 109 105 103 100 98 95 91 90 91 92 91 87 84 88 95 95 101 102 103 99 100 97 95 89 84 81 78 76 79 81 79 79 82 80 68 58 55 46 41 44 41 48 29 20 16 354 329 321 74 67 79 85 75 72 75 70 67 68 67 64 70 74 70 58
128 133 133 135 135 137 138 134 132 130 128 126 125 123 121 119 117 114 113 113 110 107 106 104 102 100 97 95 94 94 95 94 93 93 95 95 101 102 101 100 99 97 99 94 86 79 77 76 74 74 75 80 80 77 67 53 41 28 26 25 17 19 16 16 3 2 330 315 300 109 68 84 79 77 70 66 73 74 76 72 66 64 73 71 60
127 133 132 132 134 138 138 136 134 132 130 128 126 125 123 121 119 116 114 113 110 108 108 107 106 102 98 97 96 93 90 94 98 95 95 95 97 101 102 103 104 99 92 85 81 77 72 70 68 71 74 77 83 83 70 43 24 17 6 6 11 2 0 358 358 344 330 302 254 120 107 88 82 81 75 68 78 84 74 71 73 70 64 62 59
128 130 130 128 135 140 139 136 134 132 130 129 128 127 125 124 121 118 117 115 114 112 110 108 105 103 101 99 98 97 97 96 96 96 92 97 89 84 89 92 88 83 81 80 74 69 63 63 64 64 71 80 82 83 74 44 25 5 352 358 360 359 353 351 351 347 330 315 89 110 110 106 92 78 77 76 76 74 74 68 59 61 62 64 61
126 123 128 133 141 141 136 135 132 130 131 130 129 129 128 125 122 121 119 116 114 112 110 108 107 104 102 100 97 97 98 100 101 101 103 94 94 99 106 110 106 96 93 90 81 70 65 59 59 64 68 73 77 66 56 29 6 358 358 358 357 355 351 346 343 344 340 338 97 111 111 103 88 84 91 84 78 79 73 74 71 66 68 64 49
117 123 127 135 138 137 135 134 133 132 132 131 131 130 129 127 124 122 119 116 114 112 111 110 108 107 104 101 100 99 100 99 99 102 104 105 101 95 88 75 91 103 96 85 73 66 59 55 54 61 69 75 75 76 50 22 354 357 356 355 354 350 347 339 337 340 351 348 113 106 105 103 100 96 92 86 81 77 75 76 72 71 69 65 51
117 122 126 130 138 132 134 135 134 133 132 132 132 132 130 127 126 123 120 117 115 112 111 111 112 111 107 105 104 101 99 100 100 100 101 101 102 106 102 83 87 88 87 84 70 62 56 53 51 59 68 79 89 81 70 5 355 347 353 349 345 342 339 332 326 321 331 130 105 101 99 104 102 103 95 86 85 84 88 82 74 67 63 62 49
123 124 125 125 128 134 135 135 135 135 134 134 134 134 131 130 126 123 118 116 115 113 113 113 112 112 111 109 106 103 101 99 100 100 100 100 96 93 95 95 94 97 94 89 74 59 55 52 52 54 66 74 85 91 63 16 347 343 343 341 337 333 331 332 323 315 333 137 114 108 108 108 109 109 103 103 101 91 77 72 68 69 70 68 59
122 125 127 126 133 139 136 135 136 136 136 135 135 132 131 130 125 119 119 117 115 112 112 114 115 114 113 110 107 104 103 101 99 95 94 96 99 99 101 101 94 92 90 77 61 52 50 49 47 53 60 68 78 78 71 12 341 339 332 334 330 332 335 339 335 343 354 127 112 114 110 115 114 110 107 107 91 86 76 78 83 76 63 48 49
127 130 129 133 136 135 137 135 133 134 135 131 131 129 127 123 119 119 119 118 116 114 115 116 118 118 116 113 109 108 106 104 102 102 99 101 105 102 102 106 103 91 78 63 53 48 46 46 45 44 57 67 70 74 35 5 346 331 327 327 330 332 337 330 336 338 356 130 105 115 120 118 121 118 115 110 108 99 94 84 72 71 75 54 52
128 132 131 133 131 137 135 138 131 131 128 130 126 124 127 124 123 123 120 116 115 116 118 119 120 120 116 113 112 111 111 110 107 108 107 103 104 112 108 102 106 96 77 60 47 39 44 41 39 41 47 57 78 44 29 354 336 325 325 324 324 324 326 323 325 2 12 115 115 111 122 124 128 119 114 113 115 109 99 98 83 59 77 64 60
128 129 132 134 133 132 133 130 128 129 126 127 130 127 128 124 124 122 118 118 118 118 119 119 119 120 120 116 117 123 126 127 124 119 120 113 106 107 113 111 105 99 76 66 42 40 36 38 35 35 38 44 50 46 352 324 318 317 310 312 313 317 321 328 315 29 309 142 122 130 136 136 135 125 119 118 104 113 109 95 78 81 76 69 48
124 129 132 135 135 129 125 128 131 123 127 133 131 130 130 126 125 123 121 121 122 119 119 124 125 128 129 134 139 142 141 137 133 125 120 120 113 105 104 116 117 106 108 57 42 27 31 30 31 28 35 33 14 345 336 316 314 310 311 311 317 323 327 335 324 7 32 153 129 137 137 149 137 129 122 110 114 128 121 99 97 92 131 75 57
129 132 131 138 133 130 124 124 122 121 118 117 128 135 133 129 128 125 124 125 126 126 126 129 133 134 140 143 143 144 143 142 137 133 129 129 123 105 101 109 123 136 111 59 20 3 12 16 22 32 21 18 3 340 315 319 310 312 308 312 317 321 323 336 331 317 126 123 133 133 150 150 139 134 129 127 119 146 136 131 114 103 65 92 71
133 135 143 137 134 128 131 129 126 125 120 118 124 131 136 133 130 128 130 135 135 133 136 141 144 147 146 145 149 148 147 144 144 141 140 137 131 124 113 95 127 153 169 247 273 342 315 334 2 15 23 22 8 305 297 287 292 290 294 297 308 317 318 315 353 333 116 146 134 147 153 148 143 143 141 143 148 161 153 142 145 139 144 74 91
133 148 145 136 134 135 139 130 132 131 128 121 124 131 142 137 136 138 142 141 139 143 152 159 156 154 152 154 150 132 138 172 154 153 163 164 182 147 145 161 225 193 211 218 261 257 295 282 301 317 9 20 338 270 259 268 269 276 283 293 300 315 299 303 9 134 132 139 147 160 154 147 149 153 143 144 154 155 134 133 165 163 175 157 120
149 155 142 140 134 145 145 142 144 137 129 125 127 137 141 139 137 139 134 141 151 158 167 173 169 184 159 158 162 182 185 207 205 174 181 167 152 158 170 186 214 255 271 250 240 252 260 269 273 267 236 235 258 245 254 260 263 263 265 270 279 274 284 293 317 139 163 144 163 168 156 153 157 158 152 150 162 155 162 161 174 181 156 204 109
158 151 146 141 144 153 147 150 143 136 135 130 133 138 138 137 139 139 149 158 176 176 188 189 179 189 191 158 192 207 203 184 222 184 176 161 166 171 185 214 232 248 258 273 276 266 261 263 266 269 254 244 241 236 247 238 251 258 257 260 266 256 262 270 276 159 181 159 166 167 163 163 162 161 155 162 171 179 169 177 185 197 210 149 174
151 148 142 143 152 151 150 150 136 143 137 133 143 150 141 139 157 163 163 186 206 183 201 226 190 197 194 168 198 205 165 162 215 196 150 110 133 184 215 243 258 259 259 264 273 272 267 268 267 264 257 238 221 224 229 245 240 240 245 247 250 249 250 257 256 201 173 159 165 180 171 169 169 167 161 167 177 180 175 176 185 190 189 181 189
139 126 121 144 136 128 137 137 141 151 143 145 157 165 151 158 173 175 173 189 205 188 202 237 220 205 158 159 116 77 45 32 27 44 85 120 129 170 245 254 263 265 255 257 266 267 265 269 277 277 260 257 248 225 219 228 229 229 227 235 238 256 261 272 268 211 172 168 165 178 179 177 176 173 170 173 184 184 178 180 181 191 192 174 209
120 120 120 119 113 92 101 124 160 162 148 157 165 169 158 164 174 181 178 188 193 198 199 214 232 117 117 89 69 52 41 37 24 17 39 28 133 207 220 235 246 251 235 239 256 256 253 252 269 271 264 258 264 275 250 230 226 223 225 226 232 244 252 236 270 47 149 156 170 181 185 184 184 181 176 184 187 190 184 189 190 195 199 188 189
83 99 114 138 131 138 150 183 170 152 157 162 164 165 157 170 174 178 176 193 182 187 202 202 149 91 88 78 79 57 51 35 24 21 14 28 314 299 281 243 247 249 259 225 247 249 231 235 243 253 254 263 275 275 274 260 236 220 212 217 231 225 224 298 6 350 126 183 186 186 183 187 191 189 190 194 197 196 200 193 196 202 201 205 186
77 123 134 128 116 138 164 191 165 149 166 170 166 149 151 162 178 175 163 189 162 158 142 137 91 101 99 75 75 71 81 34 33 28 338 352 317 303 285 270 275 276 282 269 253 258 256 245 245 255 283 284 272 278 263 257 243 287 303 286 295 359 337 326 332 324 76 161 188 185 184 193 195 198 199 205 205 207 208 199 201 203 206 200 190
36 75 76 46 102 157 156 180 157 151 162 163 138 145 145 155 148 116 149 116 88 83 77 69 75 79 82 94 96 78 85 72 34 347 278 329 301 278 287 284 276 270 262 252 249 236 214 157 131 126 198 280 284 299 344 343 326 12 45 335 343 331 327 310 310 323 86 141 170 187 189 196 201 204 206 211 212 212 215 204 203 206 208 189 195
46 13 74 147 172 175 163 171 126 133 136 106 115 120 132 114 88 91 86 65 57 62 69 58 55 56 49 74 88 66 33 60 349 1 3 337 335 310 311 297 280 278 268 253 300 349 26 39 31 23 18 3 348 357 358 344 338 321 329 283 283 283 293 296 292 227 157 160 174 190 201 204 206 206 212 215 216 218 217 208 210 212 209 205 200
145 155 160 181 159 150 145 111 91 61 53 57 78 79 75 80 79 68 58 65 59 59 56 44 26 20 37 18 59 68 75 326 30 5 24 317 320 342 297 258 289 299 338 4 26 37 40 52 44 28 12 16 343 340 332 335 337 342 331 312 287 282 275 278 278 298 80 169 189 199 212 212 210 212 217 221 222 224 224 225 224 219 213 216 213
144 164 163 140 139 128 92 69 71 72 68 63 72 74 74 72 75 68 59 60 63 57 58 62 58 19 2 5 0 59 79 320 75 60 358 334 338 321 274 299 296 335 28 20 22 34 48 51 27 3 352 30 339 297 287 343 327 302 302 310 315 311 295 277 259 254 254 202 203 211 210 218 220 217 222 223 226 229 230 231 232 232 221 218 219
175 138 128 118 97 99 94 68 76 73 69 65 77 84 81 73 67 70 58 61 70 71 57 54 60 60 39 21 356 347 31 342 319 102 149 264 312 291 303 11 18 36 23 22 21 35 28 12 11 358 357 9 355 344 341 339 323 314 316 304 301 297 291 288 278 278 259 247 220 199 220 219 210 223 226 227 228 229 231 236 236 235 234 227 226
129 101 86 89 108 93 74 70 65 69 65 61 64 69 69 73 79 78 69 68 61 54 68 60 60 73 81 87 10 340 343 321 340 336 35 341 3 4 333 7 15 15 26 17 12 31 29 20 0 22 355 4 350 336 340 334 317 314 314 300 309 300 300 303 282 260 244 248 239 217 209 220 209 203 225 234 233 231 233 233 236 239 238 237 234
109 101 103 117 108 88 88 81 72 64 67 76 71 70 66 82 87 82 78 80 74 74 65 68 61 76 108 69 106 47 321 351 360 1 350 10 360 324 299 339 358 353 26 345 3 28 41 26 14 1 342 340 324 308 320 308 302 303 302 309 300 295 301 286 285 278 271 270 238 216 192 212 234 219 220 234 243 240 234 232 234 235 238 240 239
118 124 129 131 106 87 93 98 85 74 56 72 80 79 89 89 91 94 91 84 81 72 67 78 92 91 106 115 120 153 137 173 158 170 194 209 190 199 206 17 351 3 354 344 42 35 23 27 338 29 358 332 329 315 293 297 295 288 283 290 288 287 282 283 281 283 265 279 295 256 239 213 208 227 219 222 233 238 236 233 232 235 235 236 239
136 137 139 125 101 103 108 108 105 106 80 70 85 77 78 77 81 81 81 80 82 82 77 75 82 78 79 64 53 49 25 54 64 31 291 30 25 26 4 13 7 15 0 16 52 24 22 9 337 335 11 312 323 318 320 316 309 301 299 293 283 276 273 273 280 280 288 290 284 274 246 242 221 221 224 214 223 236 244 237 232 232 234 235 236
143 137 131 120 113 114 119 121 124 117 104 101 108 101 88 87 78 88 92 87 82 78 80 78 73 76 90 95 77 78 351 32 33 347 6 40 43 29 17 17 15 17 21 28 33 22 17 12 355 339 333 316 317 320 321 326 319 309 306 303 299 294 283 284 275 278 274 288 292 283 259 252 248 238 231 227 218 220 236 241 235 231 233 233 233
109 122 119 116 116 125 130 129 125 126 122 120 114 105 99 86 84 90 85 81 82 88 87 79 84 93 91 84 74 58 68 66 48 26 31 35 38 31 28 19 19 19 26 28 22 16 16 8 5 341 338 323 313 327 333 318 313 309 309 303 298 290 285 279 286 296 310 298 292 284 284 271 315 293 269 258 246 226 227 236 238 233 234 232 231
121 122 117 120 122 121 116 114 122 133 133 129 126 116 108 115 110 93 73 81 93 97 90 84 93 95 87 84 77 63 50 51 44 29 24 28 39 36 31 18 14 15 30 34 24 21 20 11 1 2 353 345 11 6 352 336 323 319 314 306 295 291 293 289 308 344 325 312 304 298 288 18 234 261 263 244 232 235 228 227 234 236 239 239 233
115 122 122 125 131 130 126 127 146 145 140 134 128 133 131 122 105 114 114 109 97 95 92 97 71 80 73 69 65 56 51 49 44 33 25 20 24 29 33 21 13 16 21 29 31 30 22 19 2 3 11 6 9 4 3 339 354 342 327 316 311 307 310 354 61 22 352 332 319 315 299 359 262 284 267 254 239 232 240 240 242 257 253 250 244
126 126 131 135 134 133 126 130 138 139 135 137 140 145 163 152 138 149 136 124 110 99 98 86 81 71 64 57 54 51 49 47 44 34 31 28 25 26 32 21 16 16 25 19 15 25 20 22 24 19 5 21 17 11 7 354 15 345 329 329 328 335 348 58 36 8 354 353 345 340 351 336 329 310 298 288 273 236 243 278 273 255 252 250 246
129 130 133 139 137 124 122 132 140 138 140 141 141 140 122 130 135 145 133 114 100 106 97 92 83 72 60 54 50 47 45 45 37 40 37 28 28 31 32 26 25 21 34 25 18 23 18 25 29 33 5 7 13 19 16 20 5 322 302 347 346 351 330 1 354 352 360 355 349 10 8 26 15 10 348 327 311 317 340 258 259 268 267 256 250
131 131 141 136 127 127 136 142 142 136 133 136 125 122 133 124 118 126 128 114 120 99 84 75 68 63 55 50 43 43 42 40 33 29 29 21 21 21 14 25 21 20 38 36 20 17 17 28 28 29 22 23 12 9 21 15 24 360 15 356 282 341 332 0 338 317 349 353 14 11 17 16 9 4 359 17 1 350 327 323 310 286 265 259 253
140 144 140 139 136 140 146 146 132 123 127 127 129 134 123 113 102 85 102 105 89 88 81 67 67 70 67 52 48 44 44 43 33 27 25 27 26 29 29 24 28 35 43 41 29 24 36 34 31 32 32 26 18 8 20 11 24 20 15 354 356 17 13 322 322 284 14 352 17 16 12 11 4 356 0 8 5 5 351 342 327 316 313 307 328
144 136 122 123 128 134 129 110 107 114 123 127 130 127 128 125 130 132 118 93 85 79 84 87 76 71 75 73 56 48 43 42 36 33 30 30 31 33 33 35 40 41 41 38 34 38 38 38 26 29 23 17 38 36 18 1 21 18 17 25 355 336 327 315 349 318 1 16 19 19 14 9 352 360 10 7 5 359 355 351 351 359 11 25 22
124 108 109 113 112 106 101 101 109 105 97 113 128 124 113 110 111 109 106 109 102 85 86 88 92 87 82 73 65 50 46 46 38 37 30 30 38 37 38 40 45 45 39 42 46 43 43 39 29 27 24 29 35 52 31 4 354 20 10 6 14 18 28 39 11 319 333 357 50 7 8 5 350 15 6 5 359 353 351 356 352 26 19 27 23
115 114 121 119 113 109 108 109 105 107 112 126 128 121 119 120 113 105 106 105 104 109 101 97 95 93 81 78 80 67 53 44 43 35 35 32 40 41 36 37 43 39 40 47 52 48 50 40 36 35 39 43 44 52 39 24 46 6 357 19 25 33 47 51 41 20 308 323 326 356 11 360 354 18 2 360 356 348 348 356 356 20 13 23 23
120 125 127 123 123 130 129 131 136 144 151 156 151 163 131 124 120 116 105 106 113 115 113 109 100 92 88 69 65 66 55 40 40 41 37 35 39 45 38 39 44 43 46 52 52 51 55 52 40 37 41 40 37 39 44 29 27 19 0 21 39 40 41 58 41 28 22 331 323 350 339 341 11 22 359 357 351 345 352 347 11 12 5 20 21
128 125 126 129 133 133 131 130 124 122 149 149 153 129 118 115 113 116 117 117 114 108 103 97 93 90 87 73 69 74 63 47 40 39 41 38 40 40 41 44 46 48 49 52 54 46 43 48 42 42 42 47 27 31 41 26 25 14 30 30 48 31 44 38 35 30 31 52 353 339 346 346 340 346 353 352 350 355 347 354 9 6 5 22 17
126 132 134 135 137 125 123 112 110 98 86 83 80 79 85 93 110 115 117 118 117 115 106 97 97 93 92 87 80 80 66 57 49 41 42 42 40 40 43 45 47 47 46 50 52 49 42 43 38 36 44 52 38 37 35 34 31 33 37 42 45 40 35 30 20 17 19 8 351 350 343 349 329 330 350 349 344 356 345 5 0 4 13 17 10